This is the latest recevied weather packets stored in our database for station/object KQ4WWD. If no packets are shown the sender has not sent any weather packets the latest 10 day(s).
| Time | Temp. | Humidity | Pressure | Rain* | Wind** | Luminosity | Snow |
|---|---|---|---|---|---|---|---|
| 1777732132 | 25° C | 84% | 1010.5 hPa | 0 mm | - | 216 W/m² | - |
| 1777731828 | 25° C | 84% | 1010.2 hPa | 0 mm | - | 196 W/m² | - |
| 1777731525 | 25° C | 85% | 1010.3 hPa | 0 mm | - | 190 W/m² | - |
| 1777731223 | 24.44° C | 85% | 1010.2 hPa | 0 mm | - | 206 W/m² | - |
| 1777730920 | 24.44° C | 86% | 1010.5 hPa | 0 mm | - | 159 W/m² | - |
| 1777730618 | 24.44° C | 86% | 1010.6 hPa | 0 mm | - | 139 W/m² | - |
| 1777730314 | 24.44° C | 86% | 1010.6 hPa | 0 mm | - | 141 W/m² | - |
| 1777730011 | 24.44° C | 87% | 1010.5 hPa | 0 mm | - | 129 W/m² | - |
| 1777729707 | 23.89° C | 88% | 1010.4 hPa | 0 mm | - | 104 W/m² | - |
| 1777729404 | 23.89° C | 89% | 1010.5 hPa | 0 mm | - | 82 W/m² | - |
| 1777729100 | 23.89° C | 89% | 1010.4 hPa | 0 mm | - | 79 W/m² | - |
| 1777728797 | 23.89° C | 89% | 1010.6 hPa | 0 mm | - | 92 W/m² | - |
| 1777728494 | 23.89° C | 90% | 1010.6 hPa | 0 mm | - | 92 W/m² | - |
| 1777728192 | 23.89° C | 90% | 1010.4 hPa | 0 mm | - | 85 W/m² | - |
| 1777727889 | 23.89° C | 90% | 1010.4 hPa | 0 mm | - | 98 W/m² | - |
| 1777727586 | 23.89° C | 90% | 1010.2 hPa | 0 mm | - | 103 W/m² | - |
| 1777727283 | 23.89° C | 90% | 1010.5 hPa | 0 mm | - | 106 W/m² | - |
| 1777726980 | 23.89° C | 90% | 1010.4 hPa | 0 mm | - | 85 W/m² | - |
| 1777726676 | 23.89° C | 90% | 1010.1 hPa | 0 mm | - | 86 W/m² | - |
| 1777726374 | 23.89° C | 90% | 1009.8 hPa | 0 mm | - | 125 W/m² | - |
| 1777726070 | 23.89° C | 91% | 1009.8 hPa | 0 mm | - | 127 W/m² | - |
| 1777725767 | 23.33° C | 91% | 1009.6 hPa | 0 mm | - | 120 W/m² | - |
| 1777725466 | 23.33° C | 91% | 1009.7 hPa | 0 mm | - | 95 W/m² | - |
| 1777725163 | 23.33° C | 91% | 1009.7 hPa | 0 mm | - | 93 W/m² | - |
| 1777724859 | 23.33° C | 92% | 1009.4 hPa | 0 mm | - | 89 W/m² | - |
* Rain latest hour (hover to see other rain measurements)
** Current wind speed in m/s (hover to see current wind gust speed)